Погода в Конакри

Гвинея     9°37′42″N   13°35′18″W
темп.,
°C
ветер,
м/с
пор.,
м/с
влажн.,
%
обл.,
%
осадки,
мм/ч
давл.,
гПа
погр.,
м
15 мая, сб
сб1500:00+26зсз117433 0.0 101087
03:00+25сз117981 0.0 100961
06:00+24сз1184100 0.0 101170
09:00+28ссз116866 0.0 1013753
12:00+32зюз325123 0.0 10121442
15:00+33зюз544890 0.0 10091391
18:00+29зюз456627 0.1 1010739
21:00+27зюз127870 0.1 1012457
16 мая, вс
вс1600:00+26св1373100 1.2 1012193
03:00+25з1177100 0.0 1010153
06:00+25ссз2282100 0.0 1010123
09:00+29сз227138 0.1 1013752
12:00+31зсз225949 0.2 10131200
15:00+33з445247 0.0 10091331
18:00+29з446935 0.8 1010620
21:00+24ссв3583100 3.3 1012303
17 мая, пн
пн1700:00+25ююв128292 3.3 1011125
03:00+25в0183100 0.4 101299
06:00+24всв1289100 4.6 101394
09:00+26ссз227966 0.5 1013406
12:00+29сз126671 0.5 1012642
15:00+33зюз325084 0.0 10091283
18:00+28зюз556876 0.0 1009493
21:00+26зюз248376 1.1 1012460
18 мая, вт
вт1800:00+25зсз018568 1.5 1013203
03:00+25зсз1187100 0.0 1012157
06:00+25юз1187100 0.0 1013148
09:00+26зсз2280100 0.0 1014449
12:00+30зюз2165100 0.0 10131009
15:00+32зюз435577 0.0 10101317
18:00+28зюз446796 0.2 1011587
21:00+26з248397 1.3 1013320
19 мая, ср
ср1900:00+25сз1288100 1.9 1013158
03:00+24в2290100 1.3 1012139
06:00+25св1187100 1.3 101286
09:00+28зсз117156 0.0 1014626
12:00+31зюз2159100 0.1 10131303
15:00+32зюз4357100 0.1 10111140
18:00+28зюз447099 1.4 1010553
21:00+26сз128585 2.8 1013156